Mather AFB, CA

6:10 AM PDT on September 19, 2017 (GMT -0700)
Mather

Weather History for KMHR - March, 2013

Change the Weather History Date:

Wednesday, March 13, 2013

  Actual Average Record
Temperature  
Mean Temperature 58 °F -  
Max Temperature 75 °F 64 °F 78 °F (2007)
Min Temperature 42 °F 39 °F 32 °F (2002)
Degree Days  
Heating Degree Days 6    
Growing Degree Days 8 (Base 50)    
Moisture  
Dew Point 47 °F    
Average Humidity 70    
Maximum Humidity 100    
Minimum Humidity 36    
Precipitation  
Precipitation 0.00 in - - ()
Sea Level Pressure  
Sea Level Pressure 30.13 in    
Wind  
Wind Speed 0 mph (NNW)    
Max Wind Speed 7 mph    
Max Gust Speed -    
Visibility 10 miles    
Events      
Averages and records for this station are not official NWS values.
T = Trace of Precipitation, MM = Missing Value Source: NWS Daily Summary

Daily Weather History Graph

Daily Weather History Graph

Search for Another Location

Airport or City:

Trip Planner

Search our weather history database for the weather conditions in past years. The results will help you decide how hot, cold, wet, or windy it might be!

Date:

Astronomy

Mar. 13, 2013 Rise Set
Actual Time 7:18 AM PDT 7:10 PM PDT
Civil Twilight 6:52 AM PDT 7:37 PM PDT
Nautical Twilight 6:21 AM PDT 8:07 PM PDT
Astronomical Twilight 5:50 AM PDT 8:39 PM PDT
Moon 8:03 AM PDT (3/13) 9:30 PM PDT (3/13)
Length of Visible Light 12h 44m
Length of Day
11h 51m
Waxing Crescent, 4% of the Moon is Illuminated
Mar 13
Waxing Crescent
Mar 19
First Quarter
Mar 27
Full
Apr 2
Last Quarter
Apr 10
New

Hourly Weather History & Observations

Time (PDT) Temp. Dew Point Humidity Pressure Visibility Wind Dir Wind Speed Gust Speed Precip Events Conditions
1:45 AM 48.2 °F 44.6 °F 87% 30.13 in 10.0 mi Calm Calm - N/A   Clear
1:55 AM 51.8 °F 46.4 °F 82% 30.13 in 10.0 mi Calm Calm - N/A   Scattered Clouds
2:45 AM 46.4 °F 44.6 °F 93% 30.13 in 10.0 mi Calm Calm - N/A   Clear
3:45 AM 46.4 °F 44.6 °F 93% 30.13 in 10.0 mi Calm Calm - N/A   Clear
4:45 AM 44.6 °F 41.0 °F 87% 30.14 in 10.0 mi Calm Calm - N/A   Clear
5:45 AM 46.4 °F 44.6 °F 93% 30.15 in 10.0 mi Calm Calm - N/A   Scattered Clouds
6:58 AM 42.8 °F 41.0 °F 93% 30.15 in 10.0 mi Calm Calm - N/A   Partly Cloudy
7:48 AM 42.8 °F 42.8 °F 100% 30.16 in 10.0 mi Calm Calm - N/A   Scattered Clouds
8:46 AM 50.0 °F 48.2 °F 94% 30.17 in 10.0 mi Calm Calm - N/A   Scattered Clouds
9:45 AM 57.2 °F 50.0 °F 77% 30.17 in 10.0 mi Calm Calm - N/A   Scattered Clouds
10:46 AM 62.6 °F 48.2 °F 59% 30.18 in 10.0 mi Calm Calm - N/A   Mostly Cloudy
11:50 AM 66.2 °F 48.2 °F 52% 30.17 in 10.0 mi Calm Calm - N/A   Mostly Cloudy
12:46 PM 69.8 °F 50.0 °F 49% 30.15 in 10.0 mi Calm Calm - N/A   Mostly Cloudy
1:46 PM 71.6 °F 50.0 °F 46% 30.13 in 10.0 mi Calm Calm - N/A   Mostly Cloudy
2:46 PM 73.4 °F 48.2 °F 41% 30.11 in 10.0 mi NNW 6.9 mph - N/A   Mostly Cloudy
3:50 PM 73.4 °F 50.0 °F 44% 30.10 in 10.0 mi NNW 4.6 mph - N/A   Mostly Cloudy
4:50 PM 75.2 °F 46.4 °F 36% 30.09 in 10.0 mi NNW 4.6 mph - N/A   Scattered Clouds
5:50 PM 75.2 °F 46.4 °F 36% 30.07 in 10.0 mi Calm Calm - N/A   Partly Cloudy
7:45 PM 66.2 °F 48.2 °F 52% 30.07 in 10.0 mi Calm Calm - N/A   Partly Cloudy
9:45 PM 55.4 °F 48.2 °F 77% 30.08 in 10.0 mi Calm Calm - N/A   Clear
10:45 PM 55.4 °F 48.2 °F 77% 30.10 in 10.0 mi Calm Calm - N/A   Clear